Kosmos-972

operational
NORAD ID: 10539 Int'l Des: 1977-123 Owner: YUZH Country: SU
LEO

Über Kosmos-972

Beschreibung wird geladen...

Live-Position

3D-Globus wird geladen...

Nächste Überflüge

Höhenverlauf

Altitude vs Time

uPlot chart will show altitude changes over time

Zweizeiliger Elementsatz

1 10539U 77123A 26063.51776362 .00000110 00000-0 68572-4 0 9996
2 10539 75.8316 264.1623 0301531 66.3529 296.8950 13.89153581441516
Epoch: 4. März 2026 • Age: 18 hours

Aktueller Status

Höhe 973.2 km
Geschwindigkeit 7.35 km/s
Subsatellitenpunkt 11.70°N, 2.49°E
Startdatum 27. Dez. 1977
Alter 48.1 years
Typ other

Technische Details

Klassifizierung Payload
Masse 1700.00 kg
Trockenmasse 1700.00 kg
Gesamtmasse 1700.00 kg
Länge 3.20 m
Durchmesser 1.30 m
Spannweite 3.20 m
Form Cyl
Hersteller YUZH
Bus-Typ GVM
Phasenstatus In Orbit
Besitzer/Staat YUZH/SU

Große Konstellationen

Loading constellations...